SCP
0 0 0 0 0 0 0 0 0 0 3 5 3 3 3 2 1 1 1 1 2 1 0 0 0 0 0 0 0 0 0 0 0 0 0 0 0 0 0 0 0 0 0
0 0 0 0 0 0 0 0 0 0 1 3 4 5 5 3 3 2 2 1 1 1 1 0 0 0 0 0 0 0 0 0 0 1 0 0 0 0 0 0 0 0 0
0 0 0 0 0 0 0 0 0 0 0 3 5 4 4 2 2 2 2 1 1 1 1 1 0 0 0 0 0 0 0 0 0 0 0 0 0 0 0 0 0 0 0
0 0 0 0 0 0 0 0 0 0 0 3 4 4 4 3 3 3 2 1 1 1 0 0 0 0 0 0 0 0 0 0 0 0 0 0 0 0 0 0 0 0 0
0 0 0 0 0 0 0 0 0 0 0 0 2 4 3 2 2 3 2 1 1 1 1 1 0 0 0 0 0 0 0 0 0 0 0 0 0 0 0 0 0 0 0
0 0 0 0 0 0 0 0 0 0 0 0 0 1 2 3 2 2 2 1 1 1 1 1 0 0 0 0 0 0 0 0 0 0 0 0 0 0 0 0 0 0 0
-0 0 0 0 0 0 0 0 0 0 0 0 0 1 1 2 2 2 1 1 1 1 1 1 1 1 0 0 0 0 0 0 0 0 0 0 0 0 0 0 0 0 0
-0 -0 -0 -0 0 0 0 0 0 0 0 -0 0 0 1 1 2 2 2 1 1 1 1 1 1 1 0 0 0 0 0 0 0 0 0 0 0 0 0 0 0 0 0
-0 -0 -0 -0 -0 -0 0 0 0 0 0 0 0 0 0 1 0 3 2 1 0 0 0 1 1 1 0 0 0 0 0 0 0 0 0 0 0 0 0 0 0 0 0
-0 -0 -0 -0 -0 -0 -0 -0 -0 -0 0 0 0 0 1 0 1 1 1 0 0 0 0 1 1 0 0 0 0 0 0 0 0 0 0 0 0 0 0 0 0 0 0
-0 -0 -0 -0 -0 -0 -0 -0 -0 0 0 0 0 0 1 1 1 1 1 0 0 0 0 1 0 0 0 0 0 0 0 0 0 0 0 0 0 0 0 0 0 0 0
-0 -0 -0 -0 -0 -0 0 0 0 0 0 0 0 -0 0 1 1 1 1 1 0 0 0 1 1 0 0 0 0 0 0 0 0 0 0 0 0 0 0 0 0 0 0
-0 -0 -0 -0 -0 0 0 0 0 0 0 0 0 0 0 0 0 0 0 1 0 0 0 0 0 0 0 0 0 0 0 0 0 0 0 0 0 0 -0 0 0 0 0
-0 -0 -0 0 -0 0 0 0 0 0 0 0 0 0 0 0 0 0 1 1 0 0 0 0 0 0 0 0 0 0 0 0 0 -0 0 0 0 -0 0 0 0 0 0
-0 0 0 -0 0 0 0 0 0 0 0 0 0 0 0 0 0 0 0 0 0 0 0 0 0 0 0 0 0 0 0 0 0 0 0 0 0 0 0 0 0 0 -0
0 0 0 0 0 0 0 0 0 0 0 0 0 0 0 0 0 0 0 0 0 0 0 0 0 0 0 0 0 0 0 0 0 0 0 0 0 0 0 -0 -0 -0 -0
0 0 0 0 0 0 0 0 0 0 0 0 0 0 0 0 0 0 0 0 0 0 0 0 0 0 0 0 0 0 0 0 0 0 0 0 0 0 0 -0 -0 -0 -0
0 0 0 0 0 0 0 0 0 0 0 0 0 0 0 0 0 0 0 0 0 0 0 0 0 0 0 0 0 0 0 0 0 0 0 0 -0 -0 -0 -0 -0 -0 -0
0 0 0 0 0 0 0 0 0 0 0 0 0 0 0 0 0 0 0 0 0 0 0 0 0 0 0 0 0 0 0 0 0 0 -0 -0 -0 -0 -0 -0 -0 -0 -0
0 0 0 0 0 0 0 0 0 0 0 0 0 0 0 0 0 0 0 0 0 0 0 0 0 0 0 0 0 0 0 0 0 0 -0 -0 -0 -0 0 0 -0 -0 0
0 0 0 0 0 0 0 0 0 0 0 0 0 0 0 0 0 0 0 0 0 0 0 0 0 0 0 0 0 0 0 0 0 0 -0 0 0 0 0 0 -0 0 0
0 0 0 0 0 0 0 0 0 0 0 0 0 0 0 0 0 0 0 0 0 0 0 0 0 0 0 0 0 0 0 0 0 0 -0 -0 0 0 0 0 0 -0 -0
0 0 0 0 0 0 0 0 0 0 0 0 0 0 0 0 0 0 0 0 0 0 0 0 0 0 0 0 0 0 0 0 0 0 -0 0 0 0 0 0 -0 -0 0
0 0 0 0 0 0 0 0 0 0 0 0 0 0 0 0 0 0 0 0 0 0 0 0 0 0 0 0 0 0 0 0 0 0 0 0 0 0 0 0 0 -0 0
0 0 0 0 0 0 0 0 0 0 0 0 0 0 0 0 0 0 0 0 0 0 0 0 0 0 0 0 0 0 0 0 0 0 0 0 0 0 0 0 -0 -0 0
-0 0 0 0 0 0 0 0 0 0 0 0 0 0 0 0 0 0 0 0 0 0 0 0 0 0 0 0 0 0 0 0 0 0 0 0 0 0 0 0 -0 -0 0
Wind_Speed_500mb
42 46 54 54 56 49 44 58 63 66 71 67 65 69 70 67 60 64 59 63 68 62 60 70 73 67 62 54 51 46 44 41 35 31 30 24 26 24 22 17 15 15 15
45 46 46 32 41 44 50 59 58 70 73 77 69 71 76 74 66 61 62 63 65 75 67 66 74 75 68 60 59 52 52 52 48 45 36 28 22 27 21 19 14 17 18
49 53 48 46 24 21 30 41 65 60 70 80 77 74 76 73 65 65 64 64 76 78 84 76 76 73 75 67 65 60 59 63 56 48 33 18 14 26 19 16 17 18 18
47 50 48 48 52 54 46 36 34 41 59 76 79 78 77 77 75 68 67 64 64 78 86 87 84 84 78 75 73 63 65 64 60 55 52 32 26 22 21 24 23 21 19
38 46 52 56 54 50 52 51 37 27 42 71 84 81 82 77 72 72 66 57 59 67 76 88 84 83 78 83 74 73 73 72 62 65 59 62 32 29 20 31 34 29 22
34 36 41 47 49 51 47 45 46 42 30 50 79 89 85 79 80 78 66 61 64 67 76 74 88 85 88 92 82 78 73 72 61 63 58 60 55 41 28 22 41 35 24
29 43 53 59 55 55 58 57 54 47 45 37 46 72 95 81 71 78 70 59 61 70 67 69 72 78 92 93 96 78 71 68 63 61 62 63 58 46 38 32 48 43 34
31 40 51 61 67 66 58 59 62 53 54 56 39 49 73 94 75 68 62 64 55 57 56 53 65 66 80 87 54 64 59 69 64 63 63 59 60 49 35 31 44 41 33
38 50 64 71 77 82 82 72 68 60 47 52 48 45 58 78 80 70 70 47 42 47 50 53 59 54 70 67 60 65 66 65 61 57 62 61 52 38 31 31 33 41 36
49 61 70 87 105 102 92 85 71 63 51 47 47 36 40 61 58 48 32 35 43 44 45 46 52 54 66 69 69 90 86 74 64 64 57 49 40 32 30 33 32 42 35
55 64 83 111 114 109 100 79 68 53 48 34 47 42 38 35 51 38 34 35 39 37 38 40 44 43 51 67 81 77 77 82 70 51 30 27 27 26 29 31 37 43 30
61 69 102 102 88 88 82 67 50 45 43 30 34 34 21 21 36 47 35 26 29 33 34 34 34 38 54 61 74 72 75 70 67 42 27 28 31 27 30 29 36 30 24
71 85 82 74 80 73 63 60 46 38 31 26 24 27 26 39 54 46 28 21 27 32 30 34 34 39 46 63 42 88 68 48 55 52 45 29 27 35 32 30 30 33 23
74 86 72 72 73 65 59 54 53 49 28 18 19 22 22 26 42 38 27 21 26 28 35 33 30 36 53 65 55 53 33 48 60 57 55 38 39 41 34 32 28 27 22
78 72 61 62 60 64 63 55 50 50 33 23 16 20 21 34 32 27 31 26 33 31 40 46 50 48 56 61 66 76 76 76 67 60 47 46 46 40 29 17 27 22 22
77 69 63 64 61 64 69 61 52 45 43 27 13 24 22 19 26 37 44 41 39 38 41 49 50 50 58 56 66 87 81 68 70 66 64 61 52 38 31 32 28 23 18
72 75 77 79 76 68 61 60 52 45 43 34 16 18 24 25 31 39 54 47 42 38 44 48 56 61 66 57 67 75 78 72 70 69 72 69 48 47 47 42 40 38 36
74 82 85 87 72 64 57 54 51 46 41 40 23 13 25 24 28 34 43 44 36 42 46 53 59 63 65 70 78 84 81 78 79 80 74 57 53 47 45 50 48 43 42
87 85 88 78 68 63 58 51 49 46 42 43 31 14 26 20 24 37 34 38 14 43 57 58 58 68 72 83 87 82 84 85 82 74 58 53 54 54 49 45 47 47 48
82 82 78 72 65 55 45 44 47 50 45 46 38 16 31 23 26 37 48 52 27 39 50 57 59 50 54 67 78 80 87 91 78 68 59 55 59 51 49 41 44 47 48
82 78 72 69 60 56 49 51 48 52 44 47 42 20 36 27 30 52 60 55 51 47 52 48 51 50 54 68 65 69 83 85 84 78 75 65 54 52 45 38 39 44 47
79 74 67 61 55 47 40 49 57 49 43 50 46 23 40 32 43 61 54 59 54 49 52 54 61 64 71 74 79 78 81 83 85 83 78 71 62 57 50 48 48 48 46
82 67 63 64 56 53 49 44 46 41 42 51 43 37 50 34 41 52 51 50 47 54 62 61 65 73 72 66 68 73 74 79 78 81 75 71 65 58 53 50 48 42 46
74 62 66 67 61 37 30 23 26 33 43 51 41 56 50 40 44 43 48 36 49 64 64 67 71 77 78 75 76 79 74 71 74 76 75 70 63 55 58 51 46 42 43
65 65 68 49 38 24 19 19 30 38 41 53 48 59 55 51 55 52 55 49 59 62 65 67 73 83 83 80 74 69 68 74 82 82 75 70 64 59 58 53 48 44 42
62 64 56 35 20 16 15 32 40 31 54 53 65 63 62 57 56 58 62 55 55 52 58 62 67 75 74 79 74 76 79 80 83 78 77 73 65 60 57 55 51 46 43
Wind_Direction_500mb
333 318 302 292 281 281 276 264 259 255 238 233 234 235 237 242 245 251 246 254 249 247 247 244 243 234 227 218 216 222 224 222 215 218 221 204 198 217 215 215 224 220 217
350 358 356 302 281 289 282 271 266 252 248 242 238 235 230 236 241 250 251 254 251 251 245 247 244 238 230 223 222 225 231 220 213 215 210 183 190 205 202 213 227 224 227
356 0 5 15 4 340 315 283 257 253 249 243 242 235 229 231 239 244 251 253 255 256 248 244 245 244 232 228 223 227 227 218 215 221 209 176 195 189 193 206 213 220 233
3 12 14 18 19 20 8 337 283 255 252 243 236 232 231 234 236 244 252 257 261 253 253 246 244 244 237 229 226 227 223 219 232 223 223 215 220 177 180 192 199 201 215
9 11 11 15 18 13 12 11 352 282 261 248 233 235 232 238 247 247 248 254 265 259 253 251 249 238 241 232 228 224 223 228 240 225 221 227 233 232 186 187 188 194 193
3 12 4 6 6 6 1 355 357 350 302 249 244 235 239 242 239 238 244 253 265 268 257 251 247 239 238 233 229 224 225 232 236 227 230 231 234 224 223 196 189 199 184
355 1 3 1 359 357 355 354 342 342 339 297 251 248 246 242 243 240 242 259 272 269 260 249 249 246 235 234 226 220 226 233 234 229 234 238 240 244 244 235 195 185 173
352 354 353 352 349 347 343 341 346 333 327 335 291 261 250 247 241 238 248 259 273 271 262 257 248 252 243 228 238 212 220 231 234 234 235 238 237 240 235 239 209 176 181
344 346 344 341 336 332 328 328 326 332 329 319 319 265 252 249 248 238 245 268 265 265 263 258 243 248 232 256 256 230 230 230 230 232 231 233 237 228 226 245 243 224 190
333 337 337 332 325 319 316 312 311 312 317 328 310 292 260 252 254 259 256 259 265 266 261 248 244 244 231 212 202 209 218 227 226 224 229 234 232 224 223 236 238 231 233
328 331 329 324 315 309 306 301 299 296 309 308 318 306 260 243 247 240 244 258 261 259 250 239 231 237 233 205 209 209 218 220 205 213 214 229 229 224 217 209 217 219 231
324 320 322 319 315 310 302 300 295 295 301 288 309 300 257 219 228 226 232 240 253 256 241 233 224 222 201 216 221 224 208 195 182 184 199 223 228 217 203 201 206 214 224
317 317 315 311 316 316 310 305 297 295 303 268 285 310 268 234 244 232 230 237 256 248 237 224 218 200 214 214 199 209 187 169 176 179 185 210 221 206 187 181 178 182 180
311 310 308 313 315 313 313 300 297 287 287 296 265 301 260 232 224 240 217 247 247 230 222 218 208 192 169 171 171 170 180 189 181 183 178 201 192 193 168 162 173 177 156
304 306 303 309 305 306 307 305 295 283 277 287 255 256 296 244 232 236 248 232 241 228 219 208 200 194 193 190 193 176 174 173 173 174 182 171 182 170 159 175 166 149 138
305 304 306 307 303 298 301 299 296 284 271 276 287 237 245 280 237 217 221 226 236 226 226 210 201 194 190 186 180 185 176 174 174 168 164 165 163 157 157 153 134 121 111
298 302 305 303 301 304 300 295 293 286 266 263 258 236 235 273 270 238 227 223 220 219 212 205 197 189 178 173 174 176 174 174 171 167 162 158 155 161 159 147 138 124 120
302 301 301 303 303 303 296 291 293 285 263 248 248 226 220 248 245 216 211 213 208 211 199 192 189 186 182 172 172 173 173 170 163 162 161 156 158 162 154 142 131 120 113
297 297 302 306 305 299 295 286 283 281 261 238 232 228 209 249 236 210 197 199 217 209 193 185 186 185 186 178 177 174 168 160 158 156 161 163 158 153 154 144 133 121 112
301 301 307 305 299 294 291 279 275 273 255 232 219 224 208 235 229 187 174 175 214 201 187 173 171 170 173 171 169 172 163 158 159 159 155 154 148 153 148 143 132 118 109
304 308 303 301 302 303 285 269 264 265 247 228 205 225 204 219 206 188 183 181 176 168 161 161 153 155 167 171 173 169 163 161 154 149 147 146 149 148 143 138 126 113 109
309 314 313 310 314 303 276 259 254 256 236 215 196 222 193 205 196 183 172 175 177 179 177 168 162 166 172 172 168 170 163 157 153 151 150 148 148 144 142 136 123 110 112
313 318 318 318 318 302 291 263 245 229 214 197 192 194 188 197 188 180 173 176 178 170 163 165 163 164 166 169 163 160 162 157 152 150 148 146 142 139 137 131 125 112 113
315 319 321 315 309 293 282 243 222 200 183 180 184 181 180 180 178 180 171 173 182 167 163 163 162 163 164 167 165 161 158 154 153 149 145 145 144 141 135 129 126 111 114
319 321 315 310 308 282 251 196 166 167 171 172 178 173 170 170 170 169 171 182 176 174 170 173 174 170 165 164 165 165 161 159 157 150 148 148 148 144 137 134 129 116 115
322 323 322 319 283 265 184 161 156 164 166 166 169 167 167 168 169 167 162 165 170 176 181 179 179 171 166 163 165 158 154 156 154 154 155 154 154 151 144 139 132 120 117
Wind_Speed_850mb
42 46 54 54 56 49 44 58 63 66 71 67 65 69 70 67 60 64 59 63 68 62 60 70 73 67 62 54 51 46 44 41 35 31 30 24 26 24 22 17 15 15 15
45 46 46 32 41 44 50 59 58 70 73 77 69 71 76 74 66 61 62 63 65 75 67 66 74 75 68 60 59 52 52 52 48 45 36 28 22 27 21 19 14 17 18
49 53 48 46 24 21 30 41 65 60 70 80 77 74 76 73 65 65 64 64 76 78 84 76 76 73 75 67 65 60 59 63 56 48 33 18 14 26 19 16 17 18 18
47 50 48 48 52 54 46 36 34 41 59 76 79 78 77 77 75 68 67 64 64 78 86 87 84 84 78 75 73 63 65 64 60 55 52 32 26 22 21 24 23 21 19
38 46 52 56 54 50 52 51 37 27 42 71 84 81 82 77 72 72 66 57 59 67 76 88 84 83 78 83 74 73 73 72 62 65 59 62 32 29 20 31 34 29 22
34 36 41 47 49 51 47 45 46 42 30 50 79 89 85 79 80 78 66 61 64 67 76 74 88 85 88 92 82 78 73 72 61 63 58 60 55 41 28 22 41 35 24
29 43 53 59 55 55 58 57 54 47 45 37 46 72 95 81 71 78 70 59 61 70 67 69 72 78 92 93 96 78 71 68 63 61 62 63 58 46 38 32 48 43 34
31 40 51 61 67 66 58 59 62 53 54 56 39 49 73 94 75 68 62 64 55 57 56 53 65 66 80 87 54 64 59 69 64 63 63 59 60 49 35 31 44 41 33
38 50 64 71 77 82 82 72 68 60 47 52 48 45 58 78 80 70 70 47 42 47 50 53 59 54 70 67 60 65 66 65 61 57 62 61 52 38 31 31 33 41 36
49 61 70 87 105 102 92 85 71 63 51 47 47 36 40 61 58 48 32 35 43 44 45 46 52 54 66 69 69 90 86 74 64 64 57 49 40 32 30 33 32 42 35
55 64 83 111 114 109 100 79 68 53 48 34 47 42 38 35 51 38 34 35 39 37 38 40 44 43 51 67 81 77 77 82 70 51 30 27 27 26 29 31 37 43 30
61 69 102 102 88 88 82 67 50 45 43 30 34 34 21 21 36 47 35 26 29 33 34 34 34 38 54 61 74 72 75 70 67 42 27 28 31 27 30 29 36 30 24
71 85 82 74 80 73 63 60 46 38 31 26 24 27 26 39 54 46 28 21 27 32 30 34 34 39 46 63 42 88 68 48 55 52 45 29 27 35 32 30 30 33 23
74 86 72 72 73 65 59 54 53 49 28 18 19 22 22 26 42 38 27 21 26 28 35 33 30 36 53 65 55 53 33 48 60 57 55 38 39 41 34 32 28 27 22
78 72 61 62 60 64 63 55 50 50 33 23 16 20 21 34 32 27 31 26 33 31 40 46 50 48 56 61 66 76 76 76 67 60 47 46 46 40 29 17 27 22 22
77 69 63 64 61 64 69 61 52 45 43 27 13 24 22 19 26 37 44 41 39 38 41 49 50 50 58 56 66 87 81 68 70 66 64 61 52 38 31 32 28 23 18
72 75 77 79 76 68 61 60 52 45 43 34 16 18 24 25 31 39 54 47 42 38 44 48 56 61 66 57 67 75 78 72 70 69 72 69 48 47 47 42 40 38 36
74 82 85 87 72 64 57 54 51 46 41 40 23 13 25 24 28 34 43 44 36 42 46 53 59 63 65 70 78 84 81 78 79 80 74 57 53 47 45 50 48 43 42
87 85 88 78 68 63 58 51 49 46 42 43 31 14 26 20 24 37 34 38 14 43 57 58 58 68 72 83 87 82 84 85 82 74 58 53 54 54 49 45 47 47 48
82 82 78 72 65 55 45 44 47 50 45 46 38 16 31 23 26 37 48 52 27 39 50 57 59 50 54 67 78 80 87 91 78 68 59 55 59 51 49 41 44 47 48
82 78 72 69 60 56 49 51 48 52 44 47 42 20 36 27 30 52 60 55 51 47 52 48 51 50 54 68 65 69 83 85 84 78 75 65 54 52 45 38 39 44 47
79 74 67 61 55 47 40 49 57 49 43 50 46 23 40 32 43 61 54 59 54 49 52 54 61 64 71 74 79 78 81 83 85 83 78 71 62 57 50 48 48 48 46
82 67 63 64 56 53 49 44 46 41 42 51 43 37 50 34 41 52 51 50 47 54 62 61 65 73 72 66 68 73 74 79 78 81 75 71 65 58 53 50 48 42 46
74 62 66 67 61 37 30 23 26 33 43 51 41 56 50 40 44 43 48 36 49 64 64 67 71 77 78 75 76 79 74 71 74 76 75 70 63 55 58 51 46 42 43
65 65 68 49 38 24 19 19 30 38 41 53 48 59 55 51 55 52 55 49 59 62 65 67 73 83 83 80 74 69 68 74 82 82 75 70 64 59 58 53 48 44 42
62 64 56 35 20 16 15 32 40 31 54 53 65 63 62 57 56 58 62 55 55 52 58 62 67 75 74 79 74 76 79 80 83 78 77 73 65 60 57 55 51 46 43
Wind_Direction_850mb
333 318 302 292 281 281 276 264 259 255 238 233 234 235 237 242 245 251 246 254 249 247 247 244 243 234 227 218 216 222 224 222 215 218 221 204 198 217 215 215 224 220 217
350 358 356 302 281 289 282 271 266 252 248 242 238 235 230 236 241 250 251 254 251 251 245 247 244 238 230 223 222 225 231 220 213 215 210 183 190 205 202 213 227 224 227
356 0 5 15 4 340 315 283 257 253 249 243 242 235 229 231 239 244 251 253 255 256 248 244 245 244 232 228 223 227 227 218 215 221 209 176 195 189 193 206 213 220 233
3 12 14 18 19 20 8 337 283 255 252 243 236 232 231 234 236 244 252 257 261 253 253 246 244 244 237 229 226 227 223 219 232 223 223 215 220 177 180 192 199 201 215
9 11 11 15 18 13 12 11 352 282 261 248 233 235 232 238 247 247 248 254 265 259 253 251 249 238 241 232 228 224 223 228 240 225 221 227 233 232 186 187 188 194 193
3 12 4 6 6 6 1 355 357 350 302 249 244 235 239 242 239 238 244 253 265 268 257 251 247 239 238 233 229 224 225 232 236 227 230 231 234 224 223 196 189 199 184
355 1 3 1 359 357 355 354 342 342 339 297 251 248 246 242 243 240 242 259 272 269 260 249 249 246 235 234 226 220 226 233 234 229 234 238 240 244 244 235 195 185 173
352 354 353 352 349 347 343 341 346 333 327 335 291 261 250 247 241 238 248 259 273 271 262 257 248 252 243 228 238 212 220 231 234 234 235 238 237 240 235 239 209 176 181
344 346 344 341 336 332 328 328 326 332 329 319 319 265 252 249 248 238 245 268 265 265 263 258 243 248 232 256 256 230 230 230 230 232 231 233 237 228 226 245 243 224 190
333 337 337 332 325 319 316 312 311 312 317 328 310 292 260 252 254 259 256 259 265 266 261 248 244 244 231 212 202 209 218 227 226 224 229 234 232 224 223 236 238 231 233
328 331 329 324 315 309 306 301 299 296 309 308 318 306 260 243 247 240 244 258 261 259 250 239 231 237 233 205 209 209 218 220 205 213 214 229 229 224 217 209 217 219 231
324 320 322 319 315 310 302 300 295 295 301 288 309 300 257 219 228 226 232 240 253 256 241 233 224 222 201 216 221 224 208 195 182 184 199 223 228 217 203 201 206 214 224
317 317 315 311 316 316 310 305 297 295 303 268 285 310 268 234 244 232 230 237 256 248 237 224 218 200 214 214 199 209 187 169 176 179 185 210 221 206 187 181 178 182 180
311 310 308 313 315 313 313 300 297 287 287 296 265 301 260 232 224 240 217 247 247 230 222 218 208 192 169 171 171 170 180 189 181 183 178 201 192 193 168 162 173 177 156
304 306 303 309 305 306 307 305 295 283 277 287 255 256 296 244 232 236 248 232 241 228 219 208 200 194 193 190 193 176 174 173 173 174 182 171 182 170 159 175 166 149 138
305 304 306 307 303 298 301 299 296 284 271 276 287 237 245 280 237 217 221 226 236 226 226 210 201 194 190 186 180 185 176 174 174 168 164 165 163 157 157 153 134 121 111
298 302 305 303 301 304 300 295 293 286 266 263 258 236 235 273 270 238 227 223 220 219 212 205 197 189 178 173 174 176 174 174 171 167 162 158 155 161 159 147 138 124 120
302 301 301 303 303 303 296 291 293 285 263 248 248 226 220 248 245 216 211 213 208 211 199 192 189 186 182 172 172 173 173 170 163 162 161 156 158 162 154 142 131 120 113
297 297 302 306 305 299 295 286 283 281 261 238 232 228 209 249 236 210 197 199 217 209 193 185 186 185 186 178 177 174 168 160 158 156 161 163 158 153 154 144 133 121 112
301 301 307 305 299 294 291 279 275 273 255 232 219 224 208 235 229 187 174 175 214 201 187 173 171 170 173 171 169 172 163 158 159 159 155 154 148 153 148 143 132 118 109
304 308 303 301 302 303 285 269 264 265 247 228 205 225 204 219 206 188 183 181 176 168 161 161 153 155 167 171 173 169 163 161 154 149 147 146 149 148 143 138 126 113 109
309 314 313 310 314 303 276 259 254 256 236 215 196 222 193 205 196 183 172 175 177 179 177 168 162 166 172 172 168 170 163 157 153 151 150 148 148 144 142 136 123 110 112
313 318 318 318 318 302 291 263 245 229 214 197 192 194 188 197 188 180 173 176 178 170 163 165 163 164 166 169 163 160 162 157 152 150 148 146 142 139 137 131 125 112 113
315 319 321 315 309 293 282 243 222 200 183 180 184 181 180 180 178 180 171 173 182 167 163 163 162 163 164 167 165 161 158 154 153 149 145 145 144 141 135 129 126 111 114
319 321 315 310 308 282 251 196 166 167 171 172 178 173 170 170 170 169 171 182 176 174 170 173 174 170 165 164 165 165 161 159 157 150 148 148 148 144 137 134 129 116 115
322 323 322 319 283 265 184 161 156 164 166 166 169 167 167 168 169 167 162 165 170 176 181 179 179 171 166 163 165 158 154 156 154 154 155 154 154 151 144 139 132 120 117